User: anonymous   Login
Location: Mount Graham
(32.7016°N, 109.8912°W)
Time: 23:51:35
(UTC-07:00)
Language:

Cosmos 1340 - Orbit

View from above orbital plane
View from above orbital plane
View from above satellite
View from above satellite

Ground track
Ground track

The orbit data is extracted from the following two-line orbital elements,

1 13067U 82013A   17016.85326597  .00000510  00000-0  23143-4 0  9994
2 13067  81.1885 310.7382 0002962 344.2257  15.8880 15.19062895904830
Epoch (UTC): 16 January 2017 20:28:42
Eccentricity: 0.0002962
inclination: 81.1885°
perigee height: 506 km
apogee height: 511 km
right ascension of ascending node: 310.7382°
argument of perigee: 344.2257°
revolutions per day: 15.19062895
mean anomaly at epoch: 15.8880°
orbit number at epoch: 90483

The dashed part of the orbit path shows where the satellite is in the earth's shadow,  

DLR